Regional Weather Roundup
Issued by NWS

Home | Current Version | Previous Version | Graphics & Text | Print | Product List | Glossary On
Versions: 1 2 3 4 5 6 7 8 9 10 11 12 13 14 15 16 17 18 19 20 21 22 23 24 25 26 27 28 29 30 31 32 33 34 35 36 37 38 39 40 41 42 43 44 45 46 47 48 49 50
000
ASUS43 KMKX 052221
RWRWI

WISCONSIN REGIONAL WEATHER ROUNDUP
NATIONAL WEATHER SERVICE MILWAUKEE/SULLIVAN WI
500 PM CDT SUN JUL 05 2015

NOTE: "FAIR" INDICATES FEW OR NO CLOUDS BELOW 12,000 FEET WITH NO
SIGNIFICANT WEATHER AND/OR OBSTRUCTIONS TO VISIBILITY.

WIZ001-002-006>008-014>016-023>028-052300-
NORTHWEST WISCONSIN

CITY           SKY/WX    TMP DP  RH WIND       PRES   REMARKS
SUPERIOR ARPT  PTSUNNY   83  69  62 SW14G22   29.80R HX  86
ASHLAND        MOSUNNY   82  65  56 S12G20    29.85F HX  84
HAYWARD        PTSUNNY   82  64  54 S13G23    29.89F HX  83
SIREN          MOSUNNY   84  66  54 S12G21    29.85F HX  86
CUMBERLAND     MOSUNNY   79  64  61 S17G23    29.89S HX  81
RICE LAKE      MOSUNNY   83  65  55 S18       29.90F HX  84
CHETEK         MOSUNNY   82  67  60 S13       29.91S HX  85
LADYSMITH      MOSUNNY   81  64  56 S12G17    29.93F HX  83
EAU CLAIRE     MOSUNNY   83  65  54 S16       29.91S HX  85
MENOMONIE      MOSUNNY   83  67  58 S15       29.90F HX  85
NEW RICHMOND   MOSUNNY   82  67  59 S14       29.87F HX  85
OSCEOLA        MOSUNNY   84  69  59 S18       29.87F HX  87
$$

WIZ003>005-009-010-017-018-052300-
NORTH CENTRAL WISCONSIN

CITY           SKY/WX    TMP DP  RH WIND       PRES   REMARKS
MANITOWISH WTR MOSUNNY   80  62  54 S13G18    29.93F HX  81
ARBOR VITAE    MOSUNNY   80  60  51 SW15G21   29.94F HX  81
WOODRUFF       MOSUNNY   80  60  51 SW15G21   29.94F HX  81
RHINELANDER    MOSUNNY   81  60  48 SW13G21   29.97F HX  82
EAGLE RIVER    MOSUNNY   79  57  47 SW12      29.95F HX  80
LAND O LAKES   MOSUNNY   82  57  43 SW8G16    29.95F HX  81
PHILLIPS       MOSUNNY   79  62  56 S9G20     29.94S HX  80
TOMAHAWK       SUNNY     80  62  54 S5        29.96F HX  81
MEDFORD        MOSUNNY   80  61  52 S13       29.96F HX  81
MERRILL        MOSUNNY   81  63  53 SW12G17   29.97F HX  82
$$

WIZ029-030-035-036-043>047-052300-
CENTRAL WISCONSIN

CITY           SKY/WX    TMP DP  RH WIND       PRES   REMARKS
WAUSAU         SUNNY     82  60  47 S10       29.96F HX  82
MOSINEE        SUNNY     81  63  54 SW13      29.99S HX  82
MARSHFIELD     MOSUNNY   83  61  47 S13       29.97F HX  83
STEVENS POINT  SUNNY     81  60  48 S12       29.98S HX  82
WAUPACA        SUNNY     85  61  44 S9        29.97F HX  85
WAUTOMA        SUNNY     85  61  44 S13       29.98F HX  85
WISC RAPIDS    MOSUNNY   83  58  42 SW12      29.98F HX  83
CAMP DOUGLAS   SUNNY     83  65  55 S9        29.97S HX  85
$$

WIZ011>013-019>022-031-037>040-048>050-052300-
NORTHEAST WISCONSIN

CITY           SKY/WX    TMP DP  RH WIND       PRES   REMARKS
ANTIGO         SUNNY     78  63  59 S12       29.98F HX  80
SHAWANO        SUNNY     83  60  44 S8        29.97F HX  83
OCONTO         SUNNY     82  64  53 S9        29.97F HX  83
STURGEON BAY   SUNNY     73  61  64 S18       30.01F
GREEN BAY      SUNNY     82  61  48 S13G18    29.98F HX  83
MANITOWOC      SUNNY     73  60  63 MISG      30.02F
APPLETON       MOSUNNY   81  57  44 SW14      30.00F HX  81
CLINTONVILLE   SUNNY     82  59  44 S14G21    29.97F HX  82
OSHKOSH        SUNNY     82  63  52 S12G20    29.99F HX  83
$$

WIZ032>034-041-042-053>061-052300-
SOUTHWEST WISCONSIN

CITY           SKY/WX    TMP DP  RH WIND       PRES   REMARKS
LA CROSSE      PTSUNNY   84  64  50 S14       29.94F HX  85
SPARTA         MOSUNNY   85  60  42 S10G16    29.96F HX  84
VIROQUA        PTSUNNY   81  64  56 S12       29.99F HX  82
BOSCOBEL       PTSUNNY   83  66  56 VRB6      29.98F HX  85
PRAIRIE DU CHI CLOUDY    82  63  53 S5        29.97R HX  83
PLATTEVILLE    PTSUNNY   80  65  60 S10       30.01F HX  82
$$

WIZ056-057-062-063-064-067-068-052300-
SOUTH CENTRAL WISCONSIN

CITY           SKY/WX    TMP DP  RH WIND       PRES   REMARKS
REEDSBURG      MOSUNNY   83  65  55 S8        29.99S HX  85
BARABOO/DELLS  MOSUNNY   82  62  50 SW13      30.00S HX  83
LONE ROCK      MOSUNNY   84  64  50 S13       29.99F HX  85
MINERAL POINT  MOSUNNY   81  63  54 S9        30.02F HX  82
MADISON        MOSUNNY   83  62  49 S12       30.00F HX  84
MIDDLETON      MOSUNNY   84  61  45 SW9       30.02S HX  84
WATERTOWN      PTSUNNY   80  64  57 S8        30.01S HX  82
MONROE         MOSUNNY   79  63  57 S13       30.03S HX  80
JANESVILLE     MOSUNNY   82  63  51 S10       30.02S HX  83
$$

WIZ051-052-058>065-066-070>072-052300-
SOUTHEAST WISCONSIN

CITY           SKY/WX    TMP DP  RH WIND       PRES   REMARKS
MILWAUKEE      MOSUNNY   77  60  55 SE12      30.04S
WAUKESHA       MOSUNNY   79  61  53 S14       30.04S HX  80
MILWAUKEE/TIMM MOSUNNY   81  57  44 S12G17    30.03  HX  81
RACINE         SUNNY     76  58  53 S13       30.06S
BURLINGTON     MOSUNNY   79  62  56 S5        30.04R HX  80
KENOSHA        SUNNY     80  61  52 SE10      30.05S HX  81
FOND DU LAC    SUNNY     82  61  48 SW12      30.00F HX  83
SHEBOYGAN      SUNNY     75  61  61 S15       30.03S
WEST BEND      SUNNY     81  59  47 SE6       30.02S HX  81
JUNEAU         SUNNY     81  63  55 S12       30.03S HX  82
$$

LSZ147-162-052300-
LAKE SUPERIOR

STATION/POSITION TIME  TEMP    WIND        PRES    WAVE
                       AIR SEA DIR/SP/G            HT/PER
                 (UTC) (F)     (DEG/KT/KT) (MB)    (FT/S)
W MID LAKE BUOY  2150   49 40  120/ 10/ 10 1010.5F   0
DEVILS ISLAND    2200          190/ 10/ 13 1009.0F
SAXON HARBOR     2140   84     190/  6/ 15 1010.5F
$$

LMZ867-665-643>646-052300-
LAKE MICHIGAN

STATION/POSITION TIME  TEMP    WIND        PRES    WAVE
                       AIR SEA DIR/SP/G            HT/PER
                 (UTC) (F)     (DEG/KT/KT) (MB)    (FT/S)
CHAMBERS ISLAND  2100   77     150/  6/ 13 1015.6F
S GREEN BAY BUOY 2200   76 71  170/ 16/ 17 1016.1
N MID LAKE BUOY  2150   55 47  190/ 10/ 10 1016.0F   2/ 4
NORTHPORT PIER   2100   72     160/ 10/ 15 1015.9F
SISTER BAY       2014   76     180/ 18/ 21   N/A
ALGOMA LAKESHORE 2141          220/ 12/ 14   N/A
KEWAUNEE LAKESHO 2200   64     190/ 11/ 13 1015.8F
SHEBOYGAN LAKESH 2200   64     180/ 14/ 15 1017.1S
PORT WASHINGTON  2100   69     170/  6/  7 1017.6F
ATWATER BUOY     2200   65 62  190/  8/ 10 1018.6R
MILWAUKEE LAKESH 2200   67     150/ 14/ 16   N/A
KENOSHA   LAKESH 2200   68     180/  7/ 10 1016.9F
$$

TC  - TEMPERATURE IN CELSIUS
VSB - VISIBILITY IN STATUTE MILES
WCI - WIND CHILL INDEX
HX  - HEAT INDEX




USA.gov is the U.S. government's official web portal to all federal, state and local government web resources and services.